COSMOS 2550 (48865 NORAD) Tracking and Keplerian Element Data

This shows tracking and keplerian element data for the satellite.

Feedback or suggestion? Click here.




ElementValue
Catalog48865
NameCOSMOS 2550
Epoch Orbit14283
Epoch Day13.04882534
Epoch Year2024
RAAN260.6849
Inclination67.1405
Eccentricity0.0008372
Argument of Perigee270.1524
Mean Anonmoly89.8671
Mean Motion15.33830879
Decay Rate-8.1E-07
L11 48865U 21056A 24013.04882534 -.00000081 00000+0 33713-5 0 9990
L22 48865 67.1405 260.6849 0008372 270.1524 89.8671 15.33830879142836



Live tracking and technical data element details for COSMOS 2550 (NORAD 48865). COSMOS 2550 can be tracked NOW for your location showing map with azimuth and elevation plus other details from your city location.







IsCatalogInMostPopularTable: catalog: 48865, numindb: 56
Update: records affected: 1



GetName: 48865 COSMOS 2550

Hit Count: updated at: Fri, 19 Apr 2024 12:29:53 GMT